Sheyang, China

1:54 PM CST on July 21, 2017 (GMT +0800)
Sheyang

Weather History for ZYTX - October, 2012

Change the Weather History Date:

Saturday, October 6, 2012

  Actual Average Record
Temperature  
Mean Temperature 54 °F -  
Max Temperature 68 °F 65 °F 78 °F (2006)
Min Temperature 39 °F 44 °F 35 °F (1996)
Degree Days  
Heating Degree Days 12    
Growing Degree Days 4 (Base 50)    
Moisture  
Dew Point 37 °F    
Average Humidity 61    
Maximum Humidity 93    
Minimum Humidity 24    
Precipitation  
Precipitation 0.00 in - - ()
Sea Level Pressure  
Sea Level Pressure 30.23 in    
Wind  
Wind Speed 3 mph ()    
Max Wind Speed 9 mph    
Max Gust Speed -    
Visibility 4.2 miles    
Events      
Averages and records for this station are not official NWS values.
T = Trace of Precipitation, MM = Missing Value Source: Averaged Metar Reports

Daily Weather History Graph

Daily Weather History Graph

Search for Another Location

Airport or City:

Trip Planner

Search our weather history database for the weather conditions in past years. The results will help you decide how hot, cold, wet, or windy it might be!

Date:

Astronomy

Oct. 06, 2012 Rise Set
Actual Time 5:48 AM CST 5:19 PM CST
Civil Twilight 5:20 AM CST 5:47 PM CST
Nautical Twilight 4:48 AM CST 6:19 PM CST
Astronomical Twilight 4:16 AM CST 6:52 PM CST
Moon 8:59 PM CST (10/6) 11:19 AM CST (10/6)
Length of Visible Light 12h 26m
Length of Day
11h 31m
Waning Gibbous, 70% of the Moon is Illuminated
Oct 6
Waning Gibbous
Oct 8
Last Quarter
Oct 15
New
Oct 22
First Quarter
Oct 30
Full

Hourly Weather History & Observations

Time (CST) Temp. Windchill Dew Point Humidity Pressure Visibility Wind Dir Wind Speed Gust Speed Precip Events Conditions
12:00 AM 44.6 °F - 41.0 °F 87% 30.18 in - SE 2.2 mph - N/A   Clear
12:30 AM 42.8 °F - 39.2 °F 87% 30.18 in 4.3 mi Variable 2.2 mph - N/A   Unknown
1:00 AM 42.8 °F - 39.2 °F 87% 30.18 in 4.3 mi SE 2.2 mph - N/A   Unknown
1:30 AM 44.6 °F 42.3 °F 41.0 °F 87% 30.18 in 4.3 mi SE 4.5 mph - N/A   Unknown
2:00 AM 42.8 °F 40.2 °F 41.0 °F 93% 30.18 in 4.3 mi SE 4.5 mph - N/A   Unknown
2:30 AM 42.8 °F 40.2 °F 39.2 °F 87% 30.18 in 4.3 mi SE 4.5 mph - N/A   Unknown
3:00 AM 41.0 °F - 37.4 °F 87% 30.21 in 4.3 mi Variable 2.2 mph - N/A   Unknown
3:30 AM 39.2 °F - 37.4 °F 93% 30.21 in 4.3 mi Variable 2.2 mph - N/A   Unknown
4:00 AM 41.0 °F - 39.2 °F 93% 30.21 in 4.3 mi Variable 2.2 mph - N/A   Unknown
4:30 AM 39.2 °F - 37.4 °F 93% 30.24 in 4.3 mi Variable 2.2 mph - N/A   Unknown
5:00 AM 39.2 °F - 37.4 °F 93% 30.24 in 4.3 mi Variable 2.2 mph - N/A   Unknown
5:30 AM 39.2 °F - 37.4 °F 93% 30.24 in 4.3 mi Variable 2.2 mph - N/A   Unknown
6:00 AM 41.0 °F 38.1 °F 39.2 °F 93% 30.24 in 4.3 mi ESE 4.5 mph - N/A   Unknown
6:30 AM 42.8 °F 40.2 °F 39.2 °F 87% 30.24 in 4.3 mi East 4.5 mph - N/A   Unknown
7:00 AM 44.6 °F 42.3 °F 41.0 °F 87% 30.24 in 4.3 mi ESE 4.5 mph - N/A   Unknown
7:30 AM 46.4 °F 44.4 °F 41.0 °F 81% 30.27 in 4.3 mi ESE 4.5 mph - N/A   Unknown
8:00 AM 50.0 °F - 42.8 °F 76% 30.27 in 4.3 mi ESE 4.5 mph - N/A   Unknown
8:30 AM 53.6 °F - 44.6 °F 72% 30.27 in 3.7 mi Variable 2.2 mph - N/A   Unknown
9:00 AM 57.2 °F - 46.4 °F 67% 30.27 in 3.7 mi Variable 2.2 mph - N/A   Unknown
9:30 AM 59.0 °F - 44.6 °F 59% 30.27 in 3.7 mi Variable 2.2 mph - N/A   Unknown
10:00 AM 60.8 °F - 42.8 °F 52% 30.27 in 3.7 mi Variable 2.2 mph - N/A   Unknown
10:30 AM 64.4 °F - 42.8 °F 45% 30.27 in 4.3 mi Variable 2.2 mph - N/A   Unknown
11:00 AM 66.2 °F - 30.2 °F 26% 30.27 in - Variable 2.2 mph - N/A   Clear
11:30 AM 66.2 °F - 32.0 °F 28% 30.24 in - Variable 2.2 mph - N/A   Clear
12:00 PM 66.2 °F - 32.0 °F 28% 30.24 in - NNE 6.7 mph - N/A   Clear
12:30 PM 66.2 °F - 28.4 °F 24% 30.24 in - North 6.7 mph - N/A   Clear
1:00 PM 68.0 °F - 30.2 °F 24% 30.21 in - NNW 4.5 mph - N/A   Clear
1:30 PM 68.0 °F - 30.2 °F 24% 30.21 in - Variable 4.5 mph - N/A   Clear
2:00 PM 68.0 °F - 30.2 °F 24% 30.21 in - East 4.5 mph - N/A   Clear
2:30 PM 68.0 °F - 32.0 °F 26% 30.21 in - WNW 4.5 mph - N/A   Clear
3:00 PM 66.2 °F - 30.2 °F 26% 30.21 in - NW 8.9 mph - N/A   Clear
3:30 PM 66.2 °F - 30.2 °F 26% 30.21 in - North 6.7 mph - N/A   Clear
4:00 PM 66.2 °F - 32.0 °F 28% 30.21 in - NNW 4.5 mph - N/A   Clear
4:30 PM 64.4 °F - 32.0 °F 30% 30.21 in - WNW 4.5 mph - N/A   Clear
5:00 PM 62.6 °F - 32.0 °F 32% 30.21 in - Variable 2.2 mph - N/A   Clear
5:30 PM 59.0 °F - 35.6 °F 42% 30.21 in - Variable 2.2 mph - N/A   Clear
6:00 PM 59.0 °F - 33.8 °F 39% 30.21 in - NNE 4.5 mph - N/A   Clear
6:30 PM 55.4 °F - 35.6 °F 47% 30.21 in - Variable 2.2 mph - N/A   Clear
7:00 PM 51.8 °F - 39.2 °F 62% 30.24 in - Variable 2.2 mph - N/A   Clear
7:30 PM 50.0 °F - 39.2 °F 66% 30.24 in - Variable 2.2 mph - N/A   Clear
8:00 PM 51.8 °F - 41.0 °F 67% 30.24 in 5.0 mi SE 4.5 mph - N/A   Unknown
8:30 PM 51.8 °F - 39.2 °F 62% 30.24 in 5.0 mi SE 6.7 mph - N/A   Unknown
9:00 PM 50.0 °F - 39.2 °F 66% 30.24 in 5.0 mi SE 6.7 mph - N/A   Unknown
9:30 PM 50.0 °F - 39.2 °F 66% 30.24 in 3.7 mi SE 6.7 mph - N/A   Unknown
10:00 PM 50.0 °F - 39.2 °F 66% 30.24 in 3.7 mi SE 6.7 mph - N/A   Unknown
10:30 PM 48.2 °F - 37.4 °F 66% 30.24 in 3.7 mi SE 4.5 mph - N/A   Unknown
11:00 PM 46.4 °F - 37.4 °F 71% 30.24 in 3.7 mi Variable 2.2 mph - N/A   Unknown
11:30 PM 44.6 °F - 39.2 °F 81% 30.24 in 3.7 mi Calm Calm - N/A   Unknown